Old Hickory Observed Data For Previous 48 Hours

Caption
Day and Hour Reservoir Elevation (behind dam)* Tailwater Elevation (below dam)* Average Hourly Discharge*
12/10/2018 1 AM CST 443.90 398.44 31,500
12/10/2018 2 AM CST 443.94 398.38 31,500
12/10/2018 3 AM CST 444.00 398.36 31,500
12/10/2018 4 AM CST 444.03 398.29 31,500
12/10/2018 5 AM CST 444.05 398.32 31,500
12/10/2018 6 AM CST 444.05 398.32 31,500
12/10/2018 7 AM CST 444.04 398.29 31,400
12/10/2018 8 AM CST 444.03 398.26 31,400
12/10/2018 9 AM CST 444.06 398.50 31,500
12/10/2018 10 AM CST 444.06 398.62 31,500
12/10/2018 11 AM CST 444.07 398.64 31,500
12/10/2018 12 PM CST 444.08 398.71 31,500
12/10/2018 1 PM CST 444.09 398.74 31,500
12/10/2018 2 PM CST 444.13 398.76 31,500
12/10/2018 3 PM CST 444.16 398.78 31,500
12/10/2018 4 PM CST 444.19 398.81 31,500
12/10/2018 5 PM CST 444.21 398.84 31,500
12/10/2018 6 PM CST 444.23 398.84 31,500
12/10/2018 7 PM CST 444.28 398.81 31,500
12/10/2018 8 PM CST 444.29 398.83 31,500
12/10/2018 9 PM CST 444.29 398.86 31,500
12/10/2018 10 PM CST 444.29 398.88 31,500
12/10/2018 11 PM CST 444.31 398.68 31,500
12/11/2018 12 AM CST 444.32 398.59 31,500
12/11/2018 1 AM CST 444.36 398.50 31,500
12/11/2018 2 AM CST 444.41 398.41 31,500
12/11/2018 3 AM CST 444.42 398.33 31,500
12/11/2018 4 AM CST 444.44 398.35 31,500
12/11/2018 5 AM CST 444.47 398.47 31,500
12/11/2018 6 AM CST 444.49 398.49 31,500
12/11/2018 7 AM CST 444.51 398.51 31,500
12/11/2018 8 AM CST 444.52 398.62 31,500
12/11/2018 9 AM CST 444.52 398.62 31,300
12/11/2018 10 AM CST 444.52 398.72 31,300
12/11/2018 11 AM CST 444.49 398.69 31,300
12/11/2018 12 PM CST 444.45 398.55 32,300
12/11/2018 1 PM CST 444.49 399.09 34,200
12/11/2018 2 PM CST 444.52 399.02 34,200
12/11/2018 3 PM CST 444.55 398.95 34,200
12/11/2018 4 PM CST 444.57 398.97 34,200
12/11/2018 5 PM CST 444.55 398.85 34,200
12/11/2018 6 PM CST 444.56 398.76 34,200
12/11/2018 7 PM CST 444.55 399.15 34,200
12/11/2018 8 PM CST 444.54 399.20 34,200
12/11/2018 9 PM CST 444.52 399.25 34,200
12/11/2018 10 PM CST 444.50 399.30 34,200
12/11/2018 11 PM CST 444.49 399.34 34,200
12/12/2018 12 AM CST 444.48 399.35 34,200

Elevations are in feet above sea level. Discharges are in cubic feet per second and are reported at the end of the hour.